| time (UTC) | temp F | wind direction | speed MPH | gust MPH | rain 1hr in | rain 24hr in | rain mn in | humidity % | barometer mb |
| 20260505023012 | 60 | 236 | 0.0 | 1.0 | 0.00 | 7.39 | 7.39 | 52 | 1010.7 |
| 20260505021506 | 60 | 280 | 0.0 | 1.0 | 0.00 | 7.39 | 7.39 | 52 | 1010.8 |
| 20260505020005 | 60 | 281 | 0.0 | 1.0 | 0.00 | 7.39 | 7.39 | 50 | 1010.7 |
| 20260505014505 | 61 | 232 | 0.0 | 0.0 | 0.00 | 7.39 | 7.39 | 50 | 1010.6 |
| 20260505013104 | 61 | 208 | 0.0 | 0.0 | 0.00 | 7.39 | 7.39 | 49 | 1010.5 |
| 20260505011504 | 62 | 203 | 0.0 | 0.0 | 0.00 | 7.39 | 7.39 | 48 | 1010.4 |
| 20260505010010 | 63 | 273 | 0.0 | 1.0 | 0.00 | 7.39 | 7.39 | 46 | 1010.1 |
| 20260505004503 | 65 | 273 | 0.0 | 2.0 | 0.00 | 7.39 | 7.39 | 44 | 1009.9 |
| 20260505003008 | 66 | 288 | 0.0 | 1.0 | 0.00 | 7.39 | 7.39 | 43 | 1009.9 |
| 20260505001502 | 66 | 273 | 0.0 | 3.0 | 0.00 | 7.39 | 7.39 | 42 | 1009.6 |
| 20260505000001 | 67 | 281 | 0.0 | 4.0 | 0.00 | 7.39 | 7.39 | 41 | 1009.4 |
| 20260504234500 | 68 | 248 | 1.0 | 6.0 | 0.00 | 7.39 | 7.39 | 40 | 1009.2 |
| 20260504233100 | 68 | 267 | 1.0 | 4.0 | 0.00 | 7.39 | 7.39 | 39 | 1008.9 |
| 20260504231601 | 69 | 285 | 2.0 | 6.0 | 0.00 | 7.39 | 7.39 | 38 | 1008.8 |
| 20260504230059 | 69 | 193 | 1.0 | 6.0 | 0.00 | 7.39 | 7.39 | 38 | 1008.7 |
| 20260504224559 | 70 | 271 | 1.0 | 6.0 | 0.00 | 7.39 | 7.39 | 37 | 1008.6 |
| 20260504223102 | 71 | 245 | 1.0 | 5.0 | 0.00 | 7.39 | 7.39 | 36 | 1008.8 |
| 20260504221609 | 71 | 283 | 1.0 | 4.0 | 0.00 | 7.39 | 7.39 | 36 | 1008.8 |
| 20260504220056 | 71 | 274 | 1.0 | 11.0 | 0.00 | 7.39 | 7.39 | 35 | 1008.9 |
| 20260504214601 | 71 | 245 | 2.0 | 7.0 | 0.56 | 7.39 | 7.39 | 35 | 1009.0 |
| 20260504213104 | 71 | 324 | 2.0 | 10.0 | 0.64 | 7.39 | 7.39 | 36 | 1009.2 |
| 20260504211553 | 71 | 251 | 2.0 | 12.0 | 0.64 | 7.39 | 7.39 | 36 | 1009.2 |
| 20260504210052 | 71 | 225 | 2.0 | 5.0 | 1.21 | 7.39 | 7.39 | 35 | 1009.2 |
| 20260504204558 | 72 | 226 | 2.0 | 7.0 | 0.95 | 6.82 | 6.82 | 35 | 1009.3 |
| 20260504203053 | 72 | 297 | 2.0 | 6.0 | 1.52 | 6.75 | 6.75 | 35 | 1009.2 |
| 20260504201548 | 72 | 237 | 1.0 | 10.0 | 1.52 | 6.75 | 6.75 | 35 | 1009.3 |
| 20260504200046 | 72 | 250 | 1.0 | 10.0 | 0.82 | 6.05 | 6.05 | 35 | 1009.4 |
| 20260504194547 | 71 | 256 | 0.0 | 9.0 | 0.64 | 5.87 | 5.87 | 35 | 1009.5 |
| 20260504193043 | 71 | 230 | 3.0 | 13.0 | 0.00 | 5.23 | 5.23 | 34 | 1009.6 |
| 20260504191542 | 71 | 228 | 2.0 | 8.0 | 0.05 | 5.23 | 5.23 | 34 | 1009.7 |
| 20260504190040 | 71 | 221 | 3.0 | 11.0 | 0.28 | 5.23 | 5.23 | 34 | 1009.9 |
| 20260504184537 | 71 | 160 | 0.0 | 7.0 | 0.28 | 5.23 | 5.23 | 38 | 1010.2 |
| 20260504183034 | 70 | 217 | 1.0 | 8.0 | 0.28 | 5.23 | 5.23 | 35 | 1010.4 |
| 20260504181537 | 69 | 70 | 3.0 | 8.0 | 0.20 | 5.15 | 5.15 | 34 | 1010.7 |
| 20260504180035 | 69 | 192 | 3.0 | 10.0 | 0.54 | 4.95 | 4.95 | 36 | 1010.6 |
| 20260504174528 | 69 | 169 | 2.0 | 9.0 | 2.44 | 4.95 | 4.95 | 37 | 1010.8 |
| 20260504173030 | 68 | 275 | 2.0 | 13.0 | 2.44 | 4.95 | 4.95 | 37 | 1011.1 |
| 20260504171626 | 68 | 130 | 3.0 | 11.0 | 2.44 | 4.95 | 4.95 | 37 | 1011.3 |
| 20260504081558 | 43 | 274 | 0.0 | 0.0 | 0.00 | 0.00 | 0.00 | 45 | 1013.9 |
| 20260504080114 | 43 | 274 | 0.0 | 1.0 | 0.00 | 0.00 | 0.00 | 46 | 1013.8 |
| 20260504044540 | 44 | 274 | 0.0 | 0.0 | 0.00 | 0.00 | 0.00 | 54 | 1013.2 |
| 20260504043037 | 45 | 274 | 0.0 | 0.0 | 0.00 | 0.00 | 0.00 | 54 | 1013.2 |
| 20260504041535 | 45 | 274 | 0.0 | 0.0 | 0.00 | 0.00 | 0.00 | 55 | 1012.9 |
| 20260504040056 | 45 | 274 | 0.0 | 0.0 | 0.00 | 0.00 | 0.00 | 56 | 1012.7 |
| 20260504034531 | 45 | 274 | 0.0 | 0.0 | 0.00 | 0.00 | 0.00 | 56 | 1012.7 |
| 20260504033034 | 46 | 274 | 0.0 | 0.0 | 0.00 | 0.00 | 0.00 | 56 | 1012.8 |
| 20260504031533 | 46 | 274 | 0.0 | 1.0 | 0.00 | 0.00 | 0.00 | 56 | 1012.7 |
| 20260504030030 | 47 | 274 | 0.0 | 0.0 | 0.00 | 0.00 | 0.00 | 54 | 1012.6 |
| 20260504024529 | 47 | 274 | 0.0 | 0.0 | 0.00 | 0.00 | 0.00 | 54 | 1012.6 |
| 20260504023029 | 47 | 274 | 0.0 | 0.0 | 0.00 | 0.00 | 0.00 | 55 | 1012.7 |